Showing default

GLOBALSTAR M070, 32264

Orbit data source: Space-Track

GLOBALSTAR M070, 32264 is a payload satellite owned by Globalstar (US) in LEO that was launched on Sat, 20 Oct 2007 UTC via a SOYUZ-FG launch vehicle from the Tyuratam Missile And Space Complex (TTMTR). Payload-class satellites include a variety of spacecraft equipped with specific instruments for various scientific and technological missions. These include communications satellites like Starlink; space stations such as the ISS; scientific satellites like the Hubble; Earth observation satellites from companies like Planet Labs, Umbra, and HawkEye 360; GPS; miniature CubeSats for education and research; and military/defense satellites.

Loading next visibility...
Identifier
32264, 2007-048B
Orbit
LEO
Last TLE update
23 hours ago
Origin
Manufacturer
SS/Loral
Mission
Non-operational Commercial Communications
Bus & Motor
LS-400, LS-400 AOCS
Mass
450 kg wet, 380 kg dry
Launch date (UTC)
2007-10-20 (18 years ago)
Launch vehicle
SOYUZ-FG
Launch site
Tyuratam Missile And Space Complex (TTMTR)
Object type
Payload
Rocket body
Debris
Shape & HBR
Box + 2 Pan, 12 m
Radar Cross Section
5.587 m², Large (>1 m²)

Expand to show TLE details & history

TLE from 23 hours ago
0 GLOBALSTAR M070
1 32264U 07048B   25181.13888344 -.00000078  00000-0  14361-3 0  9996
2 32264  51.9754  89.0464 0000651  68.2088  75.2156 12.62319516815304
Epoch: 2025-06-30T03:19Z
TLE epoch observation values (Epoch: 2025-06-30T03:19:59.529Z)
Latitude
28.06705°
Longitude
-83.91764°
Altitude
1,414.52 km
Speed
7.157 km/s
True Right ascension
16h 18m 08s
True Declination
27° 56' 12"
Sunlit
Object was in daylight at epoch
Visualization orbit readout
Latitude
-47.457°
Longitude
-4.38694°
Altitude
1,430.115 km
Speed
7.146 km/s
Apparent Right ascension
23h 51m 20s
Apparent Declination
-49° 41' 29"
Sunlit
Object is in full shadow
Visualization observer readout
Local Sidereal Time
14:18:48
Azimuth
123.077° SE
Elevation
-62.406°
Doppler factor
1
Orbital elements
Apogee altitude
1,414.288 km
Perigee altitude
1,413.274 km
Semi-major axis
7,791.918 km
Eccentricity
0.00007
Inclination
51.9754°
RAAN
89.0464°
Arg. of periapsis
68.2088°
True anomaly
Unknown
Mean anomaly
75.2156°
Eccentric anomaly
Unknown
Mean motion
3.15556 °/min
Orbital period
114.08 mins
BSTAR
0.00014361
Loading maneuver chart data...
Loading SW <> Apogee altitude chart data...
Loading historical data...
Loading historical data...
Loading historical data...
Loading historical data...
Loading historical data...
Loading historical data...
Loading historical data...
Other satellites on launch #48 in the year 2007 (2007-10-20 UTC)

GLOBALSTAR M070 Visibility forecast

Observer location: undefined°, undefined°

Span
Click to sort rows by Start time (UTC) header in descending order
Start Az.
Max El. time (UTC)
Max El. Az.
Max El.
End time (UTC)
End Az.
17 mins2025-07-01 03:49:38.318Z304.283° NW2025-07-01 03:58:38.318Z205.852° SW42.484°2025-07-01 04:06:38.318Z144.423° SSE
7 mins2025-07-01 05:53:38.318Z264.119° W2025-07-01 05:56:38.318Z241.079° WSW15.672°2025-07-01 06:00:38.318Z211.496° SW
12 mins2025-07-01 18:35:38.318Z171.731° S2025-07-01 18:41:38.318Z121.306° SE24.527°2025-07-01 18:47:38.318Z73.35° E
15 mins2025-07-01 20:33:38.318Z231.254° WSW2025-07-01 20:40:38.318Z33.286° NE44.907°2025-07-01 20:48:38.318Z52.496° ENE
14 mins2025-07-01 22:34:38.318Z280.964° WNW2025-07-01 22:40:38.318Z338.176° N33.967°2025-07-01 22:48:38.318Z52.808° ENE
14 mins2025-07-02 00:36:38.318Z310.546° NW2025-07-02 00:42:38.318Z9.768° NNE32.554°2025-07-02 00:50:38.318Z78.171° E
5 mins2025-07-02 02:36:38.318Z310.236° NW2025-07-02 02:41:38.318Z328.138° NNW39.945°2025-07-02 02:41:38.318Z328.138° NNW
|